Starlink 35815

operational
NORAD ID: 66577 Int'l Des: 2025-268 Owner: SPXS Country: US Constellation: starlink
LEOCIRCULAR

Starlink 35815について

説明を読み込み中...

リアルタイム位置

3D地球を読み込み中...

次回通過

高度履歴

Altitude vs Time

uPlot chart will show altitude changes over time

軌道要素

1 66577U 25268W 26063.28925725 .00035137 00000-0 12791-2 0 9992
2 66577 43.0020 17.5716 0001240 278.4509 81.6202 15.27611383 17139
Epoch: Mar 4, 2026 • Age: 20 hours

現在のステータス

高度 481.9 km
速度 7.63 km/s
衛星直下点 8.74°N, 71.81°W
打ち上げ日 Nov 21, 2025
運用期間 0.2 years
タイプ internet

技術仕様

分類 Payload
質量 575.00 kg
乾燥質量 530.00 kg
総質量 575.00 kg
長さ 0.30 m
直径 4.10 m
スパン 29.00 m
形状 Box + pan
製造者 SPXS
バスタイプ Starlink V2MO
フェーズステータス In Orbit
所有者/国 SPXS/US

大規模コンステレーション

Loading constellations...